sat.trackr.live / text

‹ back to catalog

STARLINK-32104

NORAD 59695 · 2024-086P

PAYLOAD ACTIVE UNKNOWN

§ Identity

Operator
Country
US
Launch date
2024-05-08
Launch site
AFETR
Launch vehicle
Mass (kg)
RCS (m²)

Purposes: comms

External: N2YO · Heavens-Above · Gunter

§ Orbital elements

Epoch: 2026-09-21T16:20:57.054624Z

Period
94.27 min
Inclination
43.0049°
Eccentricity
0.0001489
Mean motion
15.27581471 rev/d
Perigee alt
482.0 km
Apogee alt
484.1 km
Semi-major
6,861.2 km
B*
1.1166e-5
RAAN
29.7525°
Arg perigee
296.7017°
Mean anomaly
63.3682°
Rev number
13,412

§ Raw data

STARLINK-321041 59695U 24086P   26264.68121591  .00000045  00000+0  11166-4 0  99942 59695  43.0049  29.7525 0001489 296.7017  63.3682 15.27581471134120

JSON: /api/v1/satellites/59695 · /tle

For live sub-satellite position, see the globe view (requires WebGL).

§ Visibility from observer

Set your observer location to see the next 7 days of passes ≥ 10°. The values pass through the URL so the page stays shareable.

No JS? Fill the form by hand. The geolocation button needs JavaScript.